OpenBCM V1.08-5-g2f4a (Linux)

Packet Radio Mailbox

IZ3LSV

[San Dona' di P. JN]

 Login: GUEST





  
I0OJJ  > KEPS     29.05.25 01:45l 357 Lines 16944 Bytes #19 (0) @ AMSAT
BID : ORB25149.1
Read: GUEST
Subj: 2Line Orbital Elements 25149.AMSAT
Path: IZ3LSV<IK6IHL<IK7NXU<HB9ON<DK0WUE<PI8ZTM<IR0AAB<I0OJJ<I0OJJ
Sent: 250529/0025z @:I0OJJ.ITA.EU [Rome] obcm1.08-10-g596e

>From i0ojj%i0ojj.ita.eu@i0ojj.ampr.org Thu May 29 02:25:06 2025
Received: from i0ojj.ampr.org by i0ojj.ampr.org (JNOS2.0p.8c) with SMTP
	id AA17032583 ; Thu, 29 May 2025 02:25:06 +0200
Message-Id: <ORB25149.1@i0ojj.bbs>
>From: i0ojj@i0ojj.ita.eu
X-JNOS-User-Port: Telnet   (i0ojj @ 44.134.109.10)  -> Sending message

From: I0OJJ @ I0OJJ.ITA.EU (Gustavo)
To:   KEPS @ AMSAT
X-Info: This message was generated automatically


QST de W1STR

AMSAT Orbital Elements for Amateur Satellites in TLE Format
>From Orbital Analysis Office
New England Sci-Tech STEM Education Center
Natick, MA May 29, 2025
To all radio amateurs


These element sets describe the orbits of various satellites 
in use by the amateur radio community. For details see:
www.amsat.org/keplerian-elements-formats/

A daily update of element sets is available at:
www.amsat.org/tle/daily-bulletin.txt
or without bulletin text:
www.amsat.org/tle/dailytle.txt


AO-07
1 07530U 74089B   25148.78363574 -.00000050  00000-0 -24948-4 0  9994
2 07530 101.9931 152.9222 0012473 143.1658  43.4517 12.53689278312583
UO-11
1 14781U 84021B   25148.37362795  .00001349  00000-0  14791-3 0  9990
2 14781  97.7537 114.9847 0008523  27.6076 332.5592 14.89350721199829
AO-27
1 22825U 93061C   25148.39946013  .00000119  00000-0  62708-4 0  9991
2 22825  98.7370 209.8937 0009126 142.9671 217.2142 14.30795011651979
FO-29
1 24278U 96046B   25148.47929537  .00000025  00000-0  61936-4 0  9990
2 24278  98.5773  43.9623 0350297  14.1388 346.9260 13.53247988421133
NOAA-15
1 25338U 98030A   25148.82127085  .00000242  00000-0  11692-3 0  9994
2 25338  98.5355 174.2354 0010963  39.8431 320.3553 14.26972562406725
GO-32
1 25397U 98043D   25148.32809452  .00000064  00000-0  47990-4 0  9996
2 25397  98.9698 127.1922 0000525 190.0689 170.0478 14.24311954396544
ISS
1 25544U 98067A   25148.79283138  .00013082  00000-0  23839-3 0  9993
2 25544  51.6372  43.1739 0001954 161.3640 198.7420 15.49810081512155
NO-44
1 26931U 01043C   25148.42094099  .00000121  00000-0  76550-4 0  9997
2 26931  67.0489 159.2775 0005975 275.0930  84.9490 14.31727963235361
SO-50
1 27607U 02058C   25148.53810553  .00000980  00000-0  14001-3 0  9993
2 27607  64.5529 237.7044 0054951 336.7739  23.0883 14.81591918207442
CO-55
1 27844U 03031E   25147.96182749  .00000302  00000-0  15075-3 0  9993
2 27844  98.6758 156.3984 0008790 218.2973 141.7582 14.23986221136840
CO-57
1 27848U 03031J   25148.46672874  .00000265  00000-0  13620-3 0  9998
2 27848  98.6787 156.9116 0008460 235.8152 124.2225 14.23322589136646
RS-22
1 27939U 03042A   25148.85960132  .00001121  00000-0  18547-3 0  9996
2 27939  98.3273 318.0292 0012401  51.8188  84.6309 14.72323684159104
NOAA-18
1 28654U 05018A   25148.80174484  .00000235  00000-0  14759-3 0  9994
2 28654  98.8423 228.4102 0014740 158.9738 201.2043 14.13604733 32084
CO-58
1 28895U 05043F   25148.47834269  .00001445  00000-0  24388-3 0  9999
2 28895  98.2482 292.6786 0014112 350.6303   9.4638 14.70973309 45165
CO-65
1 32785U 08021C   25148.56606230  .00004363  00000-0  31751-3 0  9990
2 32785  97.7849 119.6432 0007676 248.6131 111.4276 15.04308764927275
CO-66
1 32791U 08021J   25148.38164207  .00011798  00000-0  57653-3 0  9999
2 32791  97.7271 128.1546 0003303 175.2390 184.8876 15.18401605928642
RS-30
1 32953U 08025A   25148.81303496  .00000043  00000-0  23609-3 0  9991
2 32953  82.5037 234.4934 0020399  73.8403 286.4920 12.43164640772071
NOAA-19
1 33591U 09005A   25148.87708907  .00000214  00000-0  13813-3 0  9997
2 33591  98.9977 213.5157 0014344  40.9869 319.2378 14.13368094840451
SRMSAT
1 37841U 11058D   25148.87968106  .00000400  00000-0  73425-4 0  9992
2 37841  19.9710 225.3550 0011659 296.9407 220.1020 14.11432242703677
ZACUBE-1
1 39417U 13066B   25148.35088530  .00004862  00000-0  42388-3 0  9990
2 39417  97.7794 105.4306 0046116  92.9414 267.7086 14.96514474623085
Delfi-N3xt
1 39428U 13066N   25148.52688622  .00008754  00000-0  89126-3 0  9994
2 39428  97.8364  66.3137 0086563  41.2029 319.5679 14.88178346617281
GOMX-1
1 39430U 13066Q   25148.89535387  .00001492  00000-0  23888-3 0  9991
2 39430  97.6848   8.2770 0131338 229.4730 129.4978 14.67589199613697
LO-74
1 39440U 13066AA  25148.32001374  .00003304  00000-0  33822-3 0  9997
2 39440  97.8496  92.9667 0060931 219.4331 140.2444 14.89848004619614
AO-73
1 39444U 13066AE  25148.35765665  .00007401  00000-0  55552-3 0  9990
2 39444  97.7839 110.2254 0044256  69.2597 291.3361 15.02138046621759
DTUSAT-2
1 40030U 14033W   25148.61419411  .00006825  00000-0  44635-3 0  9991
2 40030  98.0541 119.8567 0010973  99.0207 261.2262 15.08085857594590
EO-80
1 40032U 14033Y   25148.50245835  .00006600  00000-0  43089-3 0  9991
2 40032  98.0433 119.4113 0010164  50.3874 309.8249 15.08169080594558
LILACSAT-2
1 40908U 15049K   25148.83931906  .00011251  00000-0  29673-3 0  9999
2 40908  97.5056 168.9045 0009013 190.1300 169.9765 15.38623283536429
IO-86
1 40931U 15052B   25103.16584653  .00001824  00000-0  15574-3 0  9999
2 40931   5.9984   7.7323 0012484  15.4851 344.5658 14.78734415515920
Horyu-4
1 41340U 16012D   25148.46088537  .00021149  00000-0  57401-3 0  9990
2 41340  30.9960 213.4095 0006306 286.1964  73.7988 15.36347029510925
Lapan A3
1 41603U 16040E   25148.85764359  .00003134  00000-0  11107-3 0  9996
2 41603  97.1367 153.9263 0009584 319.2590  40.7934 15.29775539495999
CAS-2T
1 41847U 16066G   25148.06562725  .00001224  00000-0  18377-3 0  9994
2 41847  98.4202 222.6370 0345591 216.2049 141.5301 14.43436250449211
CAS-4B
1 42759U 17034B   25148.83443385  .00058501  00000-0  65103-3 0  9997
2 42759  43.0080  31.8117 0020422 213.6935 146.2632 15.61763480440760
CAS-4A
1 42761U 17034D   25148.87676777  .00062387  00000-0  66182-3 0  9992
2 42761  43.0122  28.8385 0021832 217.9769 141.9557 15.62926113440797
TechnoSat
1 42829U 17042E   25148.84964986  .00002347  00000-0  18485-3 0  9998
2 42829  97.3917 318.1255 0012872 321.6767  38.3543 15.01650038428964
AO-91
1 43017U 17073E   25148.88829604  .00006329  00000-0  32798-3 0  9990
2 43017  97.5261  19.9601 0172310 205.8413 153.4133 15.04514468407458
S-Net D
1 43186U 18014G   25148.18755942  .00004447  00000-0  26485-3 0  9994
2 43186  97.5643  51.2211 0007213 268.0398  92.0006 15.11699509400501
S-Net B
1 43187U 18014H   25148.58995120  .00004694  00000-0  27943-3 0  9997
2 43187  97.5648  51.5905 0007948 260.3837  99.6495 15.11683806400562
S-Net A
1 43188U 18014J   25148.18798123  .00004512  00000-0  26860-3 0  9994
2 43188  97.5658  51.3409 0007794 263.0179  97.0164 15.11704784400507
S-Net C
1 43189U 18014K   25148.59231187  .00004791  00000-0  28506-3 0  9990
2 43189  97.5672  51.7535 0009417 252.6338 107.3862 15.11680735399116
Ten-Koh
1 43677U 18084G   25148.85955899  .00002048  00000-0  16766-3 0  9999
2 43677  98.0874 320.6511 0005135 312.0694  48.0091 15.00517731358482
PO-101
1 43678U 18084H   25148.83487475  .00002799  00000-0  24067-3 0  9994
2 43678  98.1028 324.5106 0006956 338.3111  21.7815 14.98278943358628
QO-100
1 43700U 18090A   25148.88811792  .00000143  00000-0  00000+0 0  9993
2 43700   0.0151 300.5898 0001997 166.5444 125.0695  1.00274218 24067
MinXSS-2
1 43758U 18099A   25148.26092683  .00016695  00000-0  66379-3 0  9991
2 43758  97.5021 214.2593 0012067 191.2992 168.7977 15.25300170355099
AO-95
1 43770U 18099N   25148.57876899  .00009658  00000-0  49144-3 0  9990
2 43770  97.4915 206.7983 0009280 249.1470 110.8770 15.16998558354732
RANGE-A
1 43773U 18099R   25148.86384256  .00004120  00000-0  26446-3 0  9995
2 43773  97.4488 197.6057 0010126 225.0667 134.9741 15.08973674354459
MOVE-II
1 43780U 18099Y   25148.44845641  .00211385  00000-0  16657-2 0  9992
2 43780  97.4656 223.1886 0006567 192.8648 167.2448 15.70778697355892
SNUSat 2
1 43782U 18099AA  25147.72293853  .00006834  00000-0  37507-3 0  9995
2 43782  97.4601 202.8080 0012019 190.3288 169.7698 15.14404261354553
SnugLite
1 43784U 18099AC  25148.08410257  .00009050  00000-0  45690-3 0  9991
2 43784  97.4414 202.6975 0003778 171.0812 189.0489 15.17317619354746
ITASat 1
1 43786U 18099AE  25148.57407547  .00006639  00000-0  38137-3 0  9993
2 43786  97.4566 203.1877 0013038 244.3062 115.6823 15.12767881354645
EAGLET 1
1 43790U 18099AJ  25148.41554020  .00004121  00000-0  26467-3 0  9997
2 43790  97.4769 203.0293 0010917 225.0101 135.0244 15.08943570354233
ESEO
1 43792U 18099AL  25148.41500377  .00002447  00000-0  18807-3 0  9993
2 43792  97.4479 196.4509 0012498 202.0729 157.9959 15.02562422353990
CSIM
1 43793U 18099AM  25148.81045345  .00185228  00000-0  15031-2 0  9991
2 43793  97.4819 225.8265 0006901 183.1548 176.9671 15.70142885355799
JO-97
1 43803U 18099AX  25148.41118679  .00011153  00000-0  51227-3 0  9993
2 43803  97.4665 207.5982 0008010 175.1227 185.0087 15.20530261354921
Suomi 100
1 43804U 18099AY  25148.14254128  .00008269  00000-0  40766-3 0  9994
2 43804  97.4730 206.6635 0012670 183.3550 176.7601 15.18121984354819
ISAT
1 43879U 18111D   25148.32754805  .00019026  00000-0  66844-3 0  9996
2 43879  97.5972  62.4541 0006821 231.8098 128.2528 15.29413336349801
UWE-4
1 43880U 18111E   25148.60400130  .00014408  00000-0  56986-3 0  9993
2 43880  97.5915  61.2978 0009938 249.1736 110.8437 15.25534968349801
Sparrow
1 43881U 18111F   25148.18852872  .00020810  00000-0  70465-3 0  9993
2 43881  97.6117  65.1421 0004609 288.2016  71.8723 15.30606155351898
Prox-1
1 44339U 19036A   25148.68266496  .00011142  00000-0  14153-2 0  9994
2 44339  23.9953 139.9300 0006716 296.4184  63.5624 14.79704937316349
SONATE
1 44400U 19038Q   25148.50500857  .00243946  00000-0  87841-3 0  9992
2 44400  97.6899 173.9214 0003993 225.4700 134.6245 15.88077692327654
